| time (UTC) | temp C | wind direction | speed KPH | gust KPH | rain 1hr cm | rain 24hr cm | rain mn cm | humidity % | barometer mb |
| 20260502130606 | 16 | 82 | 12.9 | 22.5 | 0.00 | 0.99 | 0.53 | 67 | 1014.8 |
| 20260502130306 | 16 | 78 | 11.3 | 22.5 | 0.00 | 0.99 | 0.53 | 68 | 1014.7 |
| 20260502123607 | 16 | 80 | 4.8 | 17.7 | 0.00 | 0.99 | 0.53 | 69 | 1014.5 |
| 20260502123306 | 16 | 87 | 6.4 | 12.9 | 0.00 | 0.99 | 0.53 | 70 | 1014.9 |
| 20260502123006 | 16 | 94 | 6.4 | 11.3 | 0.00 | 0.99 | 0.53 | 71 | 1014.6 |
| 20260502122707 | 16 | 90 | 4.8 | 11.3 | 0.00 | 0.99 | 0.53 | 71 | 1014.7 |
| 20260502121505 | 16 | 69 | 3.2 | 14.5 | 0.00 | 0.99 | 0.53 | 71 | 1014.7 |
| 20260502120606 | 16 | 87 | 6.4 | 14.5 | 0.00 | 0.99 | 0.53 | 70 | 1014.9 |
| 20260502120306 | 16 | 76 | 3.2 | 12.9 | 0.00 | 0.99 | 0.53 | 70 | 1014.6 |
| 20260502115706 | 16 | 77 | 4.8 | 6.4 | 0.00 | 0.99 | 0.53 | 75 | 1014.6 |
| 20260502115406 | 16 | 76 | 4.8 | 6.4 | 0.00 | 0.99 | 0.53 | 77 | 1014.8 |
| 20260502115107 | 16 | 73 | 3.2 | 6.4 | 0.00 | 0.99 | 0.53 | 79 | 1014.8 |
| 20260502114806 | 16 | 70 | 3.2 | 6.4 | 0.00 | 0.99 | 0.53 | 82 | 1014.6 |
| 20260502114507 | 16 | 75 | 1.6 | 6.4 | 0.00 | 0.99 | 0.53 | 83 | 1014.8 |
| 20260502114206 | 16 | 75 | 3.2 | 6.4 | 0.00 | 0.99 | 0.53 | 83 | 1014.7 |
| 20260502113906 | 16 | 70 | 3.2 | 6.4 | 0.00 | 0.99 | 0.53 | 84 | 1014.7 |
| 20260502113605 | 16 | 68 | 3.2 | 3.2 | 0.00 | 0.99 | 0.53 | 85 | 1014.6 |
| 20260502113306 | 16 | 56 | 0.0 | 3.2 | 0.00 | 0.99 | 0.53 | 85 | 1014.4 |
| 20260502113006 | 16 | 72 | 3.2 | 3.2 | 0.00 | 0.99 | 0.53 | 85 | 1014.7 |
| 20260502112706 | 16 | 70 | 1.6 | 3.2 | 0.00 | 0.99 | 0.53 | 85 | 1014.8 |
| 20260502112405 | 16 | 75 | 0.0 | 3.2 | 0.00 | 0.99 | 0.53 | 85 | 1014.8 |
| 20260502112105 | 15 | 72 | 3.2 | 6.4 | 0.00 | 0.99 | 0.53 | 86 | 1014.8 |
| 20260502111806 | 15 | 72 | 3.2 | 6.4 | 0.00 | 0.99 | 0.53 | 87 | 1014.3 |
| 20260502111506 | 15 | 66 | 3.2 | 6.4 | 0.00 | 0.99 | 0.53 | 88 | 1014.4 |
| 20260502111206 | 15 | 68 | 1.6 | 3.2 | 0.00 | 0.99 | 0.53 | 88 | 1014.4 |
| 20260502110906 | 16 | 68 | 0.0 | 3.2 | 0.00 | 0.99 | 0.53 | 89 | 1014.5 |
| 20260502110606 | 16 | 68 | 0.0 | 3.2 | 0.00 | 0.99 | 0.53 | 88 | 1014.7 |
| 20260502110306 | 16 | 0 | 0.0 | 0.0 | 0.00 | 0.99 | 0.53 | 88 | 1014.6 |
| 20260502110006 | 16 | 0 | 0.0 | 0.0 | 0.00 | 0.99 | 0.53 | 88 | 1014.7 |
| 20260502105707 | 16 | 68 | 0.0 | 3.2 | 0.00 | 0.99 | 0.53 | 87 | 1014.6 |
| 20260502105406 | 16 | 52 | 0.0 | 3.2 | 0.00 | 0.99 | 0.53 | 87 | 1014.3 |
| 20260502105106 | 16 | 29 | 0.0 | 3.2 | 0.00 | 0.99 | 0.53 | 86 | 1014.4 |
| 20260502104805 | 16 | 28 | 0.0 | 3.2 | 0.00 | 0.99 | 0.53 | 86 | 1014.5 |
| 20260502104206 | 16 | 350 | 0.0 | 3.2 | 0.00 | 0.99 | 0.53 | 86 | 1014.2 |
| 20260502103907 | 16 | 345 | 0.0 | 3.2 | 0.00 | 0.99 | 0.53 | 85 | 1014.2 |
| 20260502103606 | 16 | 341 | 0.0 | 3.2 | 0.00 | 0.99 | 0.53 | 85 | 1014.0 |
| 20260502103306 | 17 | 337 | 0.0 | 3.2 | 0.00 | 0.99 | 0.53 | 86 | 1014.4 |
| 20260502103006 | 17 | 337 | 0.0 | 3.2 | 0.00 | 0.99 | 0.53 | 86 | 1014.0 |
| 20260502102706 | 17 | 337 | 0.0 | 3.2 | 0.00 | 0.99 | 0.53 | 85 | 1014.3 |
| 20260502102405 | 17 | 0 | 0.0 | 0.0 | 0.00 | 0.99 | 0.53 | 84 | 1014.2 |
| 20260502102106 | 17 | 0 | 0.0 | 0.0 | 0.00 | 0.99 | 0.53 | 84 | 1014.0 |
| 20260502101805 | 17 | 292 | 0.0 | 3.2 | 0.00 | 0.99 | 0.53 | 83 | 1014.0 |
| 20260502101505 | 17 | 292 | 0.0 | 3.2 | 0.00 | 0.99 | 0.53 | 82 | 1013.9 |
| 20260502101205 | 17 | 292 | 0.0 | 3.2 | 0.00 | 0.99 | 0.53 | 81 | 1014.0 |
| 20260502100906 | 17 | 292 | 0.0 | 3.2 | 0.00 | 0.99 | 0.53 | 81 | 1013.9 |
| 20260502100606 | 17 | 0 | 0.0 | 0.0 | 0.00 | 0.99 | 0.53 | 81 | 1013.8 |
| 20260502100307 | 17 | 0 | 0.0 | 0.0 | 0.00 | 0.99 | 0.53 | 81 | 1013.8 |
| 20260502091506 | 18 | 209 | 1.6 | 6.4 | 0.00 | 0.99 | 0.53 | 74 | 1013.2 |
| 20260502091206 | 18 | 225 | 0.0 | 6.4 | 0.00 | 0.99 | 0.53 | 74 | 1013.2 |
| 20260502090907 | 18 | 249 | 1.6 | 6.4 | 0.00 | 0.99 | 0.53 | 74 | 1013.7 |
| 20260502090606 | 18 | 235 | 1.6 | 6.4 | 0.00 | 0.99 | 0.53 | 74 | 1013.5 |
| 20260502071205 | 22 | 304 | 3.2 | 6.4 | 0.00 | 1.02 | 0.53 | 53 | 1012.8 |
| 20260502070905 | 22 | 301 | 0.0 | 6.4 | 0.00 | 1.04 | 0.53 | 50 | 1012.9 |
| 20260502070606 | 23 | 295 | 3.2 | 6.4 | 0.00 | 1.04 | 0.53 | 46 | 1013.0 |
| 20260502070306 | 23 | 245 | 1.6 | 6.4 | 0.00 | 1.04 | 0.53 | 50 | 1012.6 |
| 20260502070006 | 23 | 216 | 0.0 | 3.2 | 0.00 | 1.04 | 0.53 | 49 | 1012.8 |
| 20260502065705 | 22 | 182 | 1.6 | 6.4 | 0.00 | 1.04 | 0.53 | 44 | 1012.8 |
| 20260502065405 | 22 | 190 | 1.6 | 6.4 | 0.00 | 1.09 | 0.53 | 48 | 1012.9 |
| 20260502065107 | 22 | 210 | 1.6 | 6.4 | 0.00 | 1.09 | 0.53 | 47 | 1012.8 |
| 20260502064506 | 22 | 286 | 0.0 | 6.4 | 0.00 | 1.14 | 0.53 | 54 | 1012.8 |
| 20260502063906 | 22 | 330 | 0.0 | 6.4 | 0.00 | 1.19 | 0.53 | 49 | 1012.7 |
| 20260502063606 | 22 | 331 | 3.2 | 6.4 | 0.00 | 1.19 | 0.53 | 50 | 1012.8 |
| 20260502063306 | 22 | 333 | 3.2 | 6.4 | 0.00 | 1.19 | 0.53 | 52 | 1012.9 |
| 20260502063006 | 22 | 319 | 1.6 | 6.4 | 0.00 | 1.19 | 0.53 | 44 | 1012.8 |
| 20260502062705 | 22 | 308 | 1.6 | 9.7 | 0.00 | 1.19 | 0.53 | 52 | 1012.7 |
| 20260502062405 | 22 | 308 | 0.0 | 9.7 | 0.00 | 1.19 | 0.53 | 48 | 1012.9 |
| 20260502062106 | 22 | 304 | 3.2 | 9.7 | 0.00 | 1.19 | 0.53 | 51 | 1012.9 |
| 20260502061806 | 22 | 306 | 4.8 | 6.4 | 0.00 | 1.19 | 0.53 | 48 | 1012.7 |
| 20260502061506 | 22 | 291 | 3.2 | 17.7 | 0.00 | 1.19 | 0.53 | 48 | 1013.0 |
| 20260502061207 | 22 | 302 | 6.4 | 17.7 | 0.00 | 1.19 | 0.53 | 48 | 1012.9 |
| 20260502060906 | 22 | 282 | 3.2 | 17.7 | 0.00 | 1.19 | 0.53 | 50 | 1013.0 |
| 20260502060606 | 22 | 296 | 4.8 | 17.7 | 0.00 | 1.19 | 0.53 | 47 | 1012.9 |
| 20260502060306 | 22 | 284 | 3.2 | 11.3 | 0.00 | 1.19 | 0.53 | 52 | 1012.9 |
| 20260502055706 | 22 | 301 | 3.2 | 9.7 | 0.00 | 1.19 | 0.53 | 48 | 1013.0 |
| 20260502055405 | 22 | 300 | 3.2 | 11.3 | 0.00 | 1.19 | 0.53 | 54 | 1012.8 |
| 20260502054806 | 22 | 309 | 3.2 | 11.3 | 0.00 | 1.19 | 0.53 | 52 | 1013.1 |
| 20260502054506 | 22 | 310 | 6.4 | 11.3 | 0.00 | 1.19 | 0.53 | 50 | 1012.9 |
| 20260502054206 | 23 | 307 | 4.8 | 11.3 | 0.00 | 1.19 | 0.53 | 50 | 1013.0 |
| 20260502053906 | 23 | 308 | 1.6 | 11.3 | 0.00 | 1.19 | 0.53 | 52 | 1013.0 |
| 20260502053606 | 22 | 317 | 1.6 | 11.3 | 0.00 | 1.19 | 0.53 | 52 | 1013.2 |
| 20260502053306 | 23 | 305 | 6.4 | 11.3 | 0.00 | 1.19 | 0.53 | 48 | 1013.0 |
| 20260502052405 | 23 | 236 | 3.2 | 17.7 | 0.00 | 1.19 | 0.53 | 53 | 1013.0 |
| 20260502052107 | 23 | 230 | 3.2 | 17.7 | 0.00 | 1.19 | 0.53 | 50 | 1013.0 |
| 20260502051806 | 22 | 223 | 4.8 | 17.7 | 0.00 | 1.19 | 0.53 | 51 | 1013.1 |
| 20260502050906 | 22 | 308 | 4.8 | 11.3 | 0.00 | 1.19 | 0.53 | 54 | 1013.1 |
| 20260502050606 | 23 | 323 | 3.2 | 11.3 | 0.00 | 1.19 | 0.53 | 54 | 1013.2 |
| 20260502050306 | 23 | 318 | 3.2 | 9.7 | 0.00 | 1.19 | 0.53 | 54 | 1013.3 |
| 20260502050007 | 23 | 175 | 3.2 | 11.3 | 0.00 | 1.19 | 0.53 | 53 | 1013.1 |
| 20260502045705 | 23 | 177 | 3.2 | 11.3 | 0.00 | 1.19 | 0.53 | 53 | 1013.1 |
| 20260502045405 | 23 | 184 | 3.2 | 11.3 | 0.00 | 1.19 | 0.53 | 53 | 1012.9 |
| 20260502045107 | 23 | 227 | 6.4 | 11.3 | 0.00 | 1.19 | 0.53 | 50 | 1012.9 |
| 20260502044806 | 23 | 236 | 4.8 | 11.3 | 0.00 | 1.19 | 0.53 | 48 | 1012.9 |
| 20260502044206 | 23 | 244 | 6.4 | 12.9 | 0.00 | 1.19 | 0.53 | 50 | 1013.1 |
| 20260502043905 | 23 | 248 | 3.2 | 12.9 | 0.00 | 1.19 | 0.53 | 52 | 1012.9 |
| 20260502043605 | 23 | 288 | 3.2 | 12.9 | 0.00 | 1.19 | 0.53 | 47 | 1012.9 |
| 20260502043305 | 23 | 235 | 6.4 | 12.9 | 0.00 | 1.19 | 0.53 | 48 | 1012.9 |
| 20260502043006 | 23 | 289 | 1.6 | 6.4 | 0.00 | 1.19 | 0.53 | 48 | 1012.9 |
| 20260502042706 | 23 | 292 | 1.6 | 6.4 | 0.00 | 1.19 | 0.53 | 49 | 1012.9 |
| 20260502042406 | 23 | 261 | 3.2 | 6.4 | 0.00 | 1.19 | 0.53 | 48 | 1012.9 |
| 20260502042106 | 23 | 157 | 3.2 | 9.7 | 0.00 | 1.19 | 0.53 | 50 | 1012.8 |
| 20260502041805 | 22 | 139 | 3.2 | 9.7 | 0.00 | 1.19 | 0.53 | 49 | 1012.7 |
| 20260502041205 | 23 | 236 | 4.8 | 9.7 | 0.00 | 1.19 | 0.53 | 43 | 1012.9 |
| 20260502040907 | 23 | 246 | 0.0 | 9.7 | 0.00 | 1.19 | 0.53 | 48 | 1012.8 |
| 20260502040306 | 22 | 152 | 3.2 | 9.7 | 0.00 | 1.19 | 0.53 | 46 | 1013.0 |
| 20260502040006 | 22 | 143 | 6.4 | 9.7 | 0.00 | 1.22 | 0.53 | 44 | 1013.0 |
| 20260502035406 | 22 | 297 | 1.6 | 6.4 | 0.00 | 1.22 | 0.53 | 51 | 1013.0 |
| 20260502034806 | 22 | 312 | 3.2 | 6.4 | 0.00 | 1.27 | 0.53 | 44 | 1013.0 |
| 20260502034506 | 22 | 317 | 1.6 | 9.7 | 0.00 | 1.27 | 0.53 | 52 | 1013.0 |
| 20260502034207 | 22 | 320 | 3.2 | 9.7 | 0.00 | 1.27 | 0.53 | 48 | 1013.1 |
| 20260502033307 | 22 | 267 | 3.2 | 11.3 | 0.00 | 1.30 | 0.53 | 49 | 1013.0 |
| 20260502032705 | 22 | 210 | 3.2 | 11.3 | 0.00 | 1.32 | 0.53 | 45 | 1013.0 |
| 20260502032406 | 22 | 228 | 3.2 | 11.3 | 0.00 | 1.32 | 0.53 | 42 | 1012.8 |
| 20260502032106 | 22 | 239 | 6.4 | 11.3 | 0.00 | 1.32 | 0.53 | 45 | 1012.9 |
| 20260502031806 | 22 | 287 | 3.2 | 6.4 | 0.00 | 1.37 | 0.53 | 42 | 1012.9 |
| 20260502031506 | 22 | 296 | 4.8 | 6.4 | 0.00 | 1.42 | 0.53 | 43 | 1013.0 |
| 20260502031206 | 22 | 305 | 1.6 | 6.4 | 0.00 | 1.45 | 0.53 | 39 | 1012.9 |
| 20260502030606 | 21 | 279 | 3.2 | 9.7 | 0.00 | 1.47 | 0.53 | 46 | 1013.1 |
| 20260502030306 | 21 | 248 | 1.6 | 9.7 | 0.00 | 1.50 | 0.53 | 41 | 1013.2 |
| 20260502030006 | 21 | 244 | 3.2 | 9.7 | 0.00 | 1.50 | 0.53 | 46 | 1013.3 |
| 20260502025705 | 22 | 252 | 3.2 | 9.7 | 0.00 | 1.50 | 0.53 | 47 | 1013.1 |
| 20260502025406 | 21 | 262 | 1.6 | 6.4 | 0.00 | 1.50 | 0.53 | 51 | 1013.3 |
| 20260502024805 | 21 | 134 | 3.2 | 9.7 | 0.00 | 1.50 | 0.53 | 52 | 1013.1 |
| 20260502024206 | 21 | 215 | 6.4 | 9.7 | 0.00 | 1.50 | 0.53 | 46 | 1013.4 |
| 20260502023906 | 22 | 276 | 3.2 | 9.7 | 0.00 | 1.50 | 0.53 | 58 | 1013.4 |
| 20260502023606 | 22 | 277 | 1.6 | 9.7 | 0.00 | 1.50 | 0.53 | 48 | 1013.4 |
| 20260502023305 | 21 | 277 | 3.2 | 6.4 | 0.00 | 1.50 | 0.53 | 54 | 1013.4 |
| 20260502023005 | 21 | 290 | 0.0 | 6.4 | 0.00 | 1.50 | 0.53 | 47 | 1013.2 |
| 20260502022705 | 22 | 280 | 3.2 | 6.4 | 0.00 | 1.52 | 0.53 | 58 | 1013.2 |
| 20260502022406 | 22 | 297 | 1.6 | 9.7 | 0.00 | 1.65 | 0.53 | 53 | 1013.1 |
| 20260502022105 | 22 | 251 | 1.6 | 9.7 | 0.00 | 1.68 | 0.53 | 48 | 1013.0 |
| 20260502021807 | 21 | 267 | 3.2 | 9.7 | 0.00 | 1.75 | 0.53 | 43 | 1013.1 |
| 20260502021506 | 21 | 286 | 6.4 | 9.7 | 0.00 | 1.83 | 0.53 | 50 | 1013.0 |
| 20260502021206 | 21 | 318 | 3.2 | 6.4 | 0.00 | 1.83 | 0.53 | 50 | 1013.0 |
| 20260502020906 | 21 | 335 | 1.6 | 6.4 | 0.00 | 1.83 | 0.53 | 51 | 1013.3 |
| 20260502020305 | 21 | 65 | 3.2 | 3.2 | 0.00 | 1.83 | 0.53 | 47 | 1013.2 |
| 20260502020007 | 21 | 14 | 1.6 | 6.4 | 0.00 | 1.83 | 0.53 | 46 | 1013.3 |
| 20260502015705 | 21 | 317 | 0.0 | 6.4 | 0.00 | 1.83 | 0.53 | 51 | 1013.3 |
| 20260502015405 | 21 | 314 | 1.6 | 6.4 | 0.00 | 1.83 | 0.53 | 45 | 1013.1 |
| 20260502015106 | 20 | 312 | 1.6 | 6.4 | 0.00 | 1.83 | 0.53 | 54 | 1013.1 |
| 20260502014806 | 20 | 312 | 3.2 | 6.4 | 0.00 | 1.83 | 0.53 | 47 | 1013.3 |
| 20260502014207 | 20 | 249 | 3.2 | 9.7 | 0.00 | 1.83 | 0.53 | 46 | 1013.3 |
| 20260502013606 | 20 | 159 | 4.8 | 9.7 | 0.00 | 1.83 | 0.53 | 52 | 1013.1 |
| 20260502013005 | 20 | 129 | 0.0 | 6.4 | 0.00 | 1.83 | 0.53 | 44 | 1013.4 |
| 20260502012706 | 20 | 101 | 3.2 | 6.4 | 0.00 | 1.83 | 0.53 | 51 | 1013.2 |
| 20260502012407 | 21 | 65 | 3.2 | 6.4 | 0.00 | 1.83 | 0.53 | 46 | 1013.1 |
| 20260502011505 | 20 | 314 | 1.6 | 6.4 | 0.00 | 1.83 | 0.53 | 56 | 1013.1 |
| 20260502010906 | 20 | 320 | 1.6 | 11.3 | 0.00 | 1.83 | 0.53 | 49 | 1013.2 |
| 20260502010606 | 20 | 317 | 1.6 | 11.3 | 0.00 | 1.83 | 0.53 | 50 | 1013.2 |
| 20260502010305 | 19 | 316 | 0.0 | 11.3 | 0.00 | 1.83 | 0.53 | 49 | 1013.3 |
| 20260502010006 | 19 | 297 | 6.4 | 11.3 | 0.00 | 1.83 | 0.53 | 47 | 1013.3 |
| 20260502005706 | 20 | 279 | 4.8 | 9.7 | 0.00 | 1.83 | 0.53 | 49 | 1013.3 |
| 20260502005405 | 20 | 177 | 0.0 | 9.7 | 0.00 | 1.83 | 0.53 | 47 | 1013.4 |
| 20260502004806 | 21 | 55 | 0.0 | 3.2 | 0.00 | 1.83 | 0.53 | 47 | 1013.5 |
| 20260502004507 | 21 | 337 | 0.0 | 3.2 | 0.00 | 1.83 | 0.53 | 44 | 1013.2 |
| 20260502003606 | 20 | 293 | 0.0 | 6.4 | 0.00 | 1.83 | 0.53 | 46 | 1013.2 |
| 20260502003306 | 20 | 343 | 0.0 | 6.4 | 0.00 | 1.83 | 0.53 | 52 | 1013.3 |
| 20260502003006 | 18 | 52 | 0.0 | 6.4 | 0.00 | 1.83 | 0.53 | 43 | 1013.3 |
| 20260502002706 | 19 | 68 | 1.6 | 3.2 | 0.00 | 1.83 | 0.53 | 43 | 1013.0 |
| 20260502002406 | 19 | 73 | 0.0 | 3.2 | 0.00 | 1.83 | 0.53 | 43 | 1013.1 |
| 20260502002106 | 20 | 81 | 1.6 | 3.2 | 0.00 | 1.83 | 0.53 | 44 | 1013.1 |
| 20260502001806 | 20 | 90 | 1.6 | 6.4 | 0.00 | 1.83 | 0.53 | 43 | 1013.1 |
| 20260502001505 | 19 | 66 | 0.0 | 6.4 | 0.00 | 1.83 | 0.53 | 46 | 1012.9 |
| 20260502001205 | 19 | 40 | 1.6 | 6.4 | 0.00 | 1.83 | 0.53 | 44 | 1013.3 |
| 20260502000906 | 19 | 3 | 3.2 | 6.4 | 0.00 | 1.83 | 0.53 | 43 | 1013.0 |
| 20260502000606 | 19 | 33 | 3.2 | 6.4 | 0.00 | 1.83 | 0.53 | 49 | 1013.1 |
| 20260502000306 | 19 | 75 | 0.0 | 3.2 | 0.00 | 1.83 | 0.53 | 47 | 1013.0 |
| 20260502000005 | 18 | 64 | 0.0 | 3.2 | 0.00 | 1.83 | 0.53 | 52 | 1013.0 |
| 20260501235405 | 18 | 315 | 1.6 | 9.7 | 0.00 | 1.83 | 0.53 | 44 | 1012.8 |
| 20260501235106 | 18 | 314 | 1.6 | 9.7 | 0.00 | 1.83 | 0.53 | 50 | 1012.8 |
| 20260501234807 | 18 | 319 | 4.8 | 9.7 | 0.00 | 1.83 | 0.53 | 51 | 1012.8 |
| 20260501234507 | 18 | 322 | 3.2 | 6.4 | 0.00 | 1.83 | 0.53 | 52 | 1012.7 |
| 20260501234207 | 18 | 326 | 1.6 | 6.4 | 0.00 | 1.83 | 0.53 | 51 | 1012.7 |
| 20260501233907 | 18 | 318 | 3.2 | 6.4 | 0.00 | 1.83 | 0.53 | 49 | 1012.6 |
| 20260501233607 | 18 | 310 | 3.2 | 11.3 | 0.00 | 1.83 | 0.53 | 51 | 1012.9 |
| 20260501233307 | 17 | 316 | 3.2 | 11.3 | 0.00 | 1.83 | 0.53 | 55 | 1012.9 |
| 20260501233008 | 17 | 311 | 3.2 | 11.3 | 0.00 | 1.83 | 0.53 | 54 | 1012.8 |
| 20260501232707 | 17 | 311 | 6.4 | 11.3 | 0.00 | 1.83 | 0.53 | 53 | 1012.8 |
| 20260501232407 | 17 | 311 | 6.4 | 11.3 | 0.00 | 1.83 | 0.53 | 55 | 1012.7 |
| 20260501232107 | 17 | 310 | 3.2 | 6.4 | 0.00 | 1.83 | 0.53 | 56 | 1012.9 |
| 20260501231807 | 17 | 317 | 4.8 | 6.4 | 0.00 | 1.83 | 0.53 | 57 | 1012.9 |
| 20260501231507 | 17 | 315 | 3.2 | 6.4 | 0.00 | 1.83 | 0.53 | 56 | 1013.2 |
| 20260501231207 | 17 | 326 | 3.2 | 6.4 | 0.00 | 1.83 | 0.53 | 59 | 1013.0 |
| 20260501230907 | 17 | 329 | 1.6 | 6.4 | 0.00 | 1.83 | 0.53 | 60 | 1013.1 |
| 20260501230606 | 17 | 326 | 3.2 | 6.4 | 0.00 | 1.83 | 0.53 | 55 | 1013.1 |
| 20260501230308 | 17 | 320 | 3.2 | 6.4 | 0.00 | 1.83 | 0.53 | 56 | 1013.2 |
| 20260501230007 | 17 | 323 | 3.2 | 6.4 | 0.00 | 1.83 | 0.53 | 58 | 1012.9 |
| 20260501225707 | 17 | 331 | 3.2 | 6.4 | 0.00 | 1.83 | 0.53 | 55 | 1013.2 |
| 20260501225406 | 17 | 345 | 1.6 | 3.2 | 0.00 | 1.83 | 0.53 | 52 | 1013.3 |
| 20260501224808 | 17 | 28 | 0.0 | 3.2 | 0.00 | 1.83 | 0.53 | 57 | 1013.2 |
| 20260501224507 | 17 | 63 | 0.0 | 3.2 | 0.00 | 1.83 | 0.53 | 62 | 1013.1 |
| 20260501224207 | 17 | 59 | 0.0 | 3.2 | 0.00 | 1.83 | 0.53 | 64 | 1013.0 |
| 20260501223908 | 17 | 356 | 0.0 | 3.2 | 0.00 | 1.85 | 0.53 | 65 | 1013.1 |
| 20260501223606 | 16 | 5 | 0.0 | 3.2 | 0.00 | 1.85 | 0.53 | 70 | 1013.3 |
| 20260501223307 | 16 | 63 | 0.0 | 6.4 | 0.00 | 1.85 | 0.53 | 71 | 1013.0 |
| 20260501223007 | 15 | 66 | 1.6 | 6.4 | 0.00 | 1.85 | 0.53 | 72 | 1013.0 |
| 20260501222408 | 15 | 65 | 3.2 | 6.4 | 0.00 | 1.88 | 0.53 | 70 | 1012.9 |
| 20260501222107 | 15 | 72 | 3.2 | 6.4 | 0.00 | 1.88 | 0.53 | 72 | 1012.8 |
| 20260501221808 | 14 | 78 | 3.2 | 6.4 | 0.00 | 1.88 | 0.53 | 72 | 1012.8 |
| 20260501221507 | 14 | 81 | 3.2 | 6.4 | 0.00 | 1.88 | 0.53 | 74 | 1012.8 |
| 20260501221207 | 14 | 76 | 3.2 | 3.2 | 0.00 | 1.88 | 0.53 | 77 | 1012.8 |
| 20260501220907 | 14 | 72 | 1.6 | 6.4 | 0.00 | 1.88 | 0.53 | 78 | 1012.8 |
| 20260501220607 | 13 | 73 | 1.6 | 6.4 | 0.00 | 1.88 | 0.53 | 77 | 1012.7 |
| 20260501220307 | 13 | 75 | 3.2 | 6.4 | 0.00 | 1.88 | 0.53 | 78 | 1012.9 |
| 20260501215707 | 13 | 68 | 3.2 | 6.4 | 0.00 | 1.88 | 0.53 | 80 | 1012.4 |
| 20260501215408 | 12 | 66 | 4.8 | 11.3 | 0.00 | 1.88 | 0.53 | 81 | 1012.6 |
| 20260501214508 | 12 | 74 | 6.4 | 11.3 | 0.00 | 1.88 | 0.53 | 83 | 1012.4 |
| 20260501214207 | 12 | 79 | 6.4 | 9.7 | 0.00 | 1.88 | 0.53 | 83 | 1012.4 |
| 20260501213907 | 12 | 75 | 3.2 | 11.3 | 0.00 | 1.88 | 0.53 | 84 | 1012.5 |
| 20260501213607 | 12 | 71 | 3.2 | 11.3 | 0.00 | 1.88 | 0.53 | 84 | 1012.4 |
| 20260501213306 | 12 | 79 | 3.2 | 11.3 | 0.00 | 1.88 | 0.53 | 85 | 1012.2 |
| 20260501213008 | 11 | 84 | 4.8 | 11.3 | 0.00 | 1.88 | 0.53 | 85 | 1011.9 |
| 20260501212707 | 11 | 93 | 4.8 | 11.3 | 0.00 | 1.88 | 0.53 | 86 | 1012.0 |
| 20260501212407 | 11 | 93 | 6.4 | 12.9 | 0.00 | 1.88 | 0.53 | 86 | 1012.1 |
| 20260501212107 | 11 | 90 | 6.4 | 12.9 | 0.00 | 1.88 | 0.53 | 86 | 1011.9 |
| 20260501211808 | 11 | 89 | 6.4 | 12.9 | 0.00 | 1.88 | 0.53 | 86 | 1012.1 |
| 20260501211507 | 11 | 84 | 6.4 | 11.3 | 0.00 | 1.88 | 0.53 | 87 | 1012.1 |
| 20260501210608 | 11 | 81 | 6.4 | 12.9 | 0.00 | 1.88 | 0.53 | 88 | 1011.8 |
| 20260501210007 | 11 | 81 | 8.0 | 11.3 | 0.00 | 1.88 | 0.53 | 91 | 1011.7 |
| 20260501205707 | 10 | 77 | 3.2 | 9.7 | 0.00 | 1.88 | 0.53 | 92 | 1011.9 |
| 20260501205107 | 10 | 95 | 0.0 | 3.2 | 0.00 | 1.88 | 0.53 | 95 | 1011.7 |
| 20260501204807 | 10 | 116 | 3.2 | 3.2 | 0.00 | 1.88 | 0.53 | 95 | 1011.9 |
| 20260501204207 | 10 | 141 | 0.0 | 3.2 | 0.00 | 1.88 | 0.53 | 95 | 1011.7 |
| 20260501203907 | 10 | 107 | 0.0 | 3.2 | 0.00 | 1.88 | 0.53 | 95 | 1011.7 |
| 20260501203607 | 10 | 91 | 0.0 | 3.2 | 0.00 | 1.88 | 0.53 | 95 | 1011.6 |
| 20260501203007 | 10 | 77 | 3.2 | 3.2 | 0.00 | 1.88 | 0.53 | 96 | 1011.7 |
| 20260501202706 | 10 | 74 | 0.0 | 3.2 | 0.00 | 1.88 | 0.53 | 96 | 1011.7 |
| 20260501202408 | 10 | 74 | 1.6 | 3.2 | 0.00 | 1.88 | 0.53 | 96 | 1011.6 |
| 20260501202107 | 10 | 70 | 1.6 | 3.2 | 0.00 | 1.88 | 0.53 | 97 | 1011.6 |
| 20260501201807 | 10 | 73 | 3.2 | 3.2 | 0.00 | 1.88 | 0.53 | 97 | 1011.6 |
| 20260501200307 | 10 | 98 | 0.0 | 3.2 | 0.00 | 1.88 | 0.53 | 95 | 1011.3 |
| 20260501200007 | 10 | 96 | 0.0 | 3.2 | 0.00 | 1.88 | 0.53 | 95 | 1011.4 |
| 20260501195707 | 10 | 97 | 0.0 | 3.2 | 0.00 | 1.88 | 0.53 | 95 | 1011.1 |
| 20260501195407 | 10 | 95 | 1.6 | 3.2 | 0.00 | 1.88 | 0.53 | 95 | 1011.4 |
| 20260501194807 | 9 | 112 | 0.0 | 3.2 | 0.00 | 1.88 | 0.53 | 94 | 1011.2 |
| 20260501194508 | 10 | 110 | 0.0 | 3.2 | 0.00 | 1.88 | 0.53 | 94 | 1011.1 |
| 20260501194208 | 10 | 96 | 0.0 | 3.2 | 0.00 | 1.88 | 0.53 | 93 | 1011.1 |
| 20260501193907 | 10 | 90 | 0.0 | 3.2 | 0.00 | 1.88 | 0.53 | 93 | 1011.2 |
| 20260501193607 | 11 | 78 | 1.6 | 3.2 | 0.00 | 1.88 | 0.53 | 92 | 1011.1 |
| 20260501193307 | 10 | 72 | 3.2 | 3.2 | 0.00 | 1.88 | 0.53 | 93 | 1011.1 |
| 20260501192407 | 10 | 62 | 0.0 | 3.2 | 0.00 | 1.88 | 0.53 | 93 | 1010.8 |
| 20260501192108 | 11 | 74 | 1.6 | 3.2 | 0.00 | 1.88 | 0.53 | 93 | 1010.9 |
| 20260501191506 | 11 | 87 | 0.0 | 3.2 | 0.00 | 1.88 | 0.53 | 93 | 1011.0 |
| 20260501191207 | 11 | 338 | 3.2 | 3.2 | 0.00 | 1.88 | 0.53 | 93 | 1010.9 |
| 20260501190907 | 11 | 309 | 0.0 | 6.4 | 0.00 | 1.88 | 0.53 | 93 | 1011.0 |
| 20260501190607 | 11 | 311 | 0.0 | 6.4 | 0.00 | 1.88 | 0.53 | 92 | 1011.2 |
| 20260501190307 | 11 | 314 | 1.6 | 6.4 | 0.00 | 1.88 | 0.53 | 92 | 1011.2 |
| 20260501190007 | 11 | 324 | 4.8 | 6.4 | 0.00 | 1.88 | 0.53 | 92 | 1011.0 |
| 20260501185107 | 11 | 60 | 1.6 | 6.4 | 0.00 | 1.88 | 0.53 | 91 | 1011.0 |
| 20260501184807 | 11 | 37 | 3.2 | 6.4 | 0.00 | 1.88 | 0.53 | 91 | 1011.2 |
| 20260501184507 | 11 | 323 | 1.6 | 6.4 | 0.00 | 1.88 | 0.53 | 91 | 1011.0 |
| 20260501183907 | 11 | 313 | 3.2 | 6.4 | 0.00 | 1.88 | 0.53 | 91 | 1011.2 |
| 20260501183607 | 11 | 313 | 3.2 | 6.4 | 0.00 | 1.88 | 0.53 | 91 | 1011.3 |
| 20260501183306 | 11 | 311 | 4.8 | 6.4 | 0.00 | 1.88 | 0.53 | 90 | 1011.0 |
| 20260501182107 | 12 | 338 | 3.2 | 6.4 | 0.00 | 1.88 | 0.53 | 89 | 1011.0 |
| 20260501181807 | 12 | 356 | 3.2 | 3.2 | 0.00 | 1.88 | 0.53 | 89 | 1011.1 |
| 20260501181507 | 12 | 356 | 0.0 | 3.2 | 0.00 | 1.88 | 0.53 | 88 | 1011.0 |
| 20260501181207 | 12 | 117 | 1.6 | 3.2 | 0.00 | 1.88 | 0.53 | 88 | 1010.9 |
| 20260501180906 | 12 | 159 | 0.0 | 9.7 | 0.00 | 1.88 | 0.53 | 87 | 1010.9 |
| 20260501180606 | 12 | 151 | 0.0 | 9.7 | 0.00 | 1.88 | 0.53 | 87 | 1010.9 |
| 20260501180307 | 12 | 146 | 1.6 | 9.7 | 0.00 | 1.88 | 0.53 | 88 | 1010.8 |
| 20260501180008 | 12 | 125 | 3.2 | 9.7 | 0.00 | 1.88 | 0.53 | 88 | 1010.7 |
| 20260501175707 | 12 | 137 | 3.2 | 12.9 | 0.00 | 1.88 | 0.53 | 88 | 1010.6 |
| 20260501175407 | 12 | 146 | 3.2 | 24.1 | 0.00 | 1.88 | 0.53 | 88 | 1010.4 |
| 20260501175106 | 12 | 151 | 3.2 | 24.1 | 0.00 | 1.88 | 0.53 | 88 | 1010.4 |
| 20260501174807 | 12 | 152 | 6.4 | 24.1 | 0.00 | 1.88 | 0.53 | 88 | 1010.3 |
| 20260501174207 | 12 | 137 | 12.9 | 17.7 | 0.00 | 1.93 | 0.53 | 87 | 1010.2 |
| 20260501173906 | 12 | 138 | 9.7 | 17.7 | 0.00 | 1.93 | 0.53 | 88 | 1010.2 |
| 20260501173607 | 12 | 128 | 6.4 | 17.7 | 0.00 | 1.96 | 0.53 | 88 | 1010.1 |
| 20260501173307 | 12 | 137 | 12.9 | 17.7 | 0.00 | 1.96 | 0.53 | 90 | 1010.1 |
| 20260501173007 | 12 | 137 | 4.8 | 17.7 | 0.00 | 1.98 | 0.53 | 91 | 1010.1 |
| 20260501172707 | 12 | 145 | 6.4 | 17.7 | 0.00 | 1.98 | 0.53 | 91 | 1010.0 |
| 20260501172407 | 12 | 146 | 6.4 | 17.7 | 0.00 | 1.98 | 0.53 | 92 | 1009.9 |
| 20260501172106 | 12 | 157 | 6.4 | 17.7 | 0.00 | 2.01 | 0.53 | 92 | 1010.1 |
| 20260501171807 | 12 | 160 | 11.3 | 17.7 | 0.00 | 2.01 | 0.53 | 92 | 1010.1 |
| 20260501171508 | 12 | 164 | 6.4 | 25.7 | 0.03 | 2.03 | 0.53 | 93 | 1009.7 |
| 20260501170907 | 11 | 168 | 6.4 | 25.7 | 0.05 | 2.03 | 0.53 | 94 | 1009.5 |
| 20260501170606 | 11 | 163 | 8.0 | 17.7 | 0.10 | 2.06 | 0.53 | 95 | 1009.6 |
| 20260501170006 | 11 | 161 | 6.4 | 25.7 | 0.15 | 2.06 | 0.53 | 95 | 1009.5 |
| 20260501165706 | 11 | 154 | 12.9 | 25.7 | 0.15 | 2.06 | 0.53 | 95 | 1009.3 |
| 20260501165407 | 11 | 161 | 6.4 | 22.5 | 0.18 | 2.06 | 0.53 | 96 | 1009.0 |
| 20260501165107 | 11 | 166 | 12.9 | 29.0 | 0.20 | 2.06 | 0.53 | 96 | 1009.1 |
| 20260501164807 | 11 | 177 | 14.5 | 29.0 | 0.23 | 2.06 | 0.53 | 96 | 1009.0 |
| 20260501164506 | 11 | 178 | 12.9 | 29.0 | 0.28 | 2.06 | 0.53 | 96 | 1008.7 |
| 20260501164207 | 11 | 179 | 14.5 | 25.7 | 0.30 | 2.06 | 0.53 | 96 | 1008.7 |
| 20260501163907 | 11 | 171 | 14.5 | 25.7 | 0.33 | 2.06 | 0.53 | 97 | 1008.6 |
| 20260501163609 | 11 | 168 | 12.9 | 25.7 | 0.33 | 2.06 | 0.53 | 97 | 1008.4 |
| 20260501163307 | 11 | 164 | 12.9 | 25.7 | 0.33 | 2.06 | 0.53 | 97 | 1008.3 |
| 20260501163007 | 11 | 165 | 12.9 | 25.7 | 0.36 | 2.06 | 0.53 | 97 | 1008.1 |
| 20260501162406 | 11 | 161 | 12.9 | 22.5 | 0.38 | 2.11 | 0.53 | 97 | 1007.9 |
| 20260501161806 | 11 | 164 | 9.7 | 27.4 | 0.43 | 2.11 | 0.53 | 97 | 1007.3 |
| 20260501161207 | 11 | 169 | 8.0 | 27.4 | 0.43 | 2.06 | 0.48 | 98 | 1007.3 |
| 20260501160906 | 12 | 166 | 9.7 | 25.7 | 0.38 | 2.03 | 0.46 | 98 | 1007.3 |
| 20260501160606 | 12 | 166 | 11.3 | 25.7 | 0.38 | 2.03 | 0.46 | 98 | 1007.4 |
| 20260501160307 | 12 | 179 | 11.3 | 20.9 | 0.36 | 1.98 | 0.38 | 98 | 1007.1 |
| 20260501160008 | 12 | 181 | 8.0 | 14.5 | 0.38 | 1.98 | 0.38 | 97 | 1006.9 |
| 20260501155707 | 12 | 166 | 4.8 | 20.9 | 0.43 | 1.98 | 0.38 | 97 | 1006.8 |
| 20260501155407 | 12 | 165 | 9.7 | 22.5 | 0.43 | 1.96 | 0.36 | 97 | 1006.5 |
| 20260501155107 | 12 | 168 | 8.0 | 22.5 | 0.43 | 1.93 | 0.33 | 97 | 1006.2 |
| 20260501154507 | 12 | 178 | 12.9 | 29.0 | 0.38 | 1.85 | 0.28 | 97 | 1006.2 |
| 20260501154207 | 12 | 169 | 12.9 | 29.0 | 0.36 | 1.83 | 0.23 | 97 | 1006.1 |
| 20260501153906 | 12 | 169 | 9.7 | 17.7 | 0.36 | 1.80 | 0.20 | 97 | 1005.8 |
| 20260501153607 | 12 | 161 | 11.3 | 20.9 | 0.43 | 1.80 | 0.20 | 97 | 1005.8 |
| 20260501153307 | 12 | 152 | 8.0 | 20.9 | 0.46 | 1.80 | 0.20 | 97 | 1005.7 |
| 20260501153007 | 12 | 141 | 9.7 | 20.9 | 0.43 | 1.78 | 0.18 | 97 | 1005.6 |
| 20260501152707 | 12 | 136 | 14.5 | 20.9 | 0.46 | 1.78 | 0.18 | 97 | 1005.5 |
| 20260501152107 | 12 | 150 | 6.4 | 22.5 | 0.46 | 1.75 | 0.15 | 97 | 1005.4 |
| 20260501151808 | 12 | 159 | 12.9 | 24.1 | 0.46 | 1.70 | 0.13 | 97 | 1005.4 |
| 20260501151507 | 12 | 165 | 12.9 | 24.1 | 0.46 | 1.68 | 0.10 | 97 | 1005.3 |
| 20260501151207 | 12 | 167 | 12.9 | 24.1 | 0.43 | 1.65 | 0.05 | 97 | 1005.2 |
| 20260501150907 | 12 | 155 | 12.9 | 20.9 | 0.46 | 1.65 | 0.05 | 98 | 1005.4 |
| 20260501150608 | 12 | 150 | 6.4 | 20.9 | 0.48 | 1.65 | 0.05 | 97 | 1005.1 |
| 20260501150307 | 12 | 142 | 9.7 | 20.9 | 0.46 | 1.63 | 0.03 | 97 | 1005.0 |
| 20260501150012 | 12 | 129 | 4.8 | 9.7 | 0.43 | 1.60 | 0.00 | 97 | 1005.0 |
| 20260501145708 | 12 | 120 | 4.8 | 9.7 | 0.38 | 1.55 | 1.55 | 97 | 1004.8 |
| 20260501145109 | 11 | 104 | 6.4 | 9.7 | 0.36 | 1.50 | 1.50 | 96 | 1004.7 |
| 20260501144808 | 11 | 107 | 3.2 | 6.4 | 0.33 | 1.47 | 1.47 | 96 | 1004.6 |
| 20260501144508 | 11 | 107 | 3.2 | 6.4 | 0.33 | 1.47 | 1.47 | 96 | 1004.3 |
| 20260501144207 | 11 | 111 | 3.2 | 6.4 | 0.33 | 1.47 | 1.47 | 95 | 1004.4 |
| 20260501143907 | 11 | 117 | 3.2 | 6.4 | 0.28 | 1.42 | 1.42 | 95 | 1004.1 |
| 20260501143606 | 11 | 116 | 3.2 | 6.4 | 0.23 | 1.37 | 1.37 | 94 | 1003.9 |